KINEIS-1B

导读

KINEIS-1B是由法国(FR)发射的卫星,于协调世界时2024年6月20日8点整成功发射入轨。KINEIS是法国Kineis公司打造的低轨物联网卫星星座,主要面向全球物联网通信、资产跟踪等领域提供连接服务,KINEIS-1B是该星座组网进程中的重要组成卫星,为后续星座全能力构建提供了支撑。

基本信息
目录编号:
60079
目录名称:
KINEIS-1B
国际标识:
2024-114A
轨道中心:
EARTH
卫星名称:
KINEIS-1B
卫星全名:
--
卫星状态:
在轨 (已飞行813 天)
发射日期:
2024-06-20 UTC
国别 :
法国 (FR)
星等 :
--
该卫星已列入 空间交会检测服务 Space Conjunction Data Service (SCDS) ,当前飞行风险评估等级: 无高风险
轨道信息
数据来源 国际轨道数据 AOE轨道数据
星历时间 2026-09-11T14:44:08+0800
11小时前
查看轨道信息
2026-09-09T22:00:00+0800
2天前
查看轨道信息
半长轴 7005.122km 7005.122km
偏心率 0.0002973 0.0002852
轨道倾角 97.981° 97.980°
近地点辐角 147.779° 151.232°
升交点赤经 278.053° 276.365°
平近点角 212.360° 166.574°
近地点 624.902km 624.987km
远地点 629.068km 628.983km
周期 97.249分钟 97.249分钟
每日圈数 14.807414 14.807416
详细信息
使用方式:
暂无
2D轨道图
3D轨道图
轨道高度分析图
轨道倾角分析图
轨道综合分析图
查看轨道综合分析图
交会数据列表
事件ID 空间交会对象 最接近时刻(TCA) 交会距离 交会风险概率(CRP) 交会风险指数(CRI) 操作
CDM_260912-161206-007906-857625
2026-09-12T
16:12:24+0000
1.312 km
极远距离
9.683662E-6 低风险 0.55
CDM_260914-073206-007906-714021
2026-09-14T
07:32:45+0000
1.495 km
极远距离
4.340287E-6 低风险 0.48
CDM_260912-201506-007906-857623
2026-09-12T
20:15:41+0000
1.705 km
极远距离
4.145134E-6 低风险 0.47
CDM_260913-152406-007906-778622
2026-09-13T
15:24:31+0000
1.851 km
极远距离
3.469786E-6 低风险 0.46
CDM_260913-223506-007906-962421
2026-09-13T
22:35:23+0000
1.924 km
极远距离
2.29531E-6 低风险 0.42
CDM_260913-143506-007906-778622
2026-09-13T
14:35:52+0000
2.330 km
极远距离
1.984611E-6 低风险 0.41
CDM_260912-223806-007906-452321
2026-09-12T
22:38:15+0000
2.445 km
极远距离
1.779319E-6 低风险 0.4
CDM_260912-203003-448206-007923
2026-09-12T
20:30:20+0000
2.554 km
极远距离
1.618321E-6 低风险 0.39
与全量物体交会距离演化趋势
与全量物体交会风险概率演化趋势